Weather History for KYIP - June, 2012

Change the Weather History Date:

Monday, June 25, 2012

  Actual Average Record
Temperature  
Mean Temperature 71 °F -  
Max Temperature 80 °F 82 °F 102 °F (1988)
Min Temperature 60 °F 60 °F 43 °F (1979)
Cooling Degree Days 6    
Growing Degree Days 21 (Base 50)    
Moisture  
Dew Point 48 °F    
Average Humidity 49    
Maximum Humidity 70    
Minimum Humidity 26    
Precipitation  
Precipitation 0.00 in - - ()
Sea Level Pressure  
Sea Level Pressure 30.00 in    
Wind  
Wind Speed 11 mph (NNE)    
Max Wind Speed 20 mph    
Max Gust Speed 28 mph    
Visibility 10 miles    
Events      
Averages and records for this station are not official NWS values.
T = Trace of Precipitation, MM = Missing Value Source: NWS Daily Summary

Daily Weather History Graph

Daily Weather History Graph

Search for Another Location

Airport or City:

Trip Planner

Search our weather history database for the weather conditions in past years. The results will help you decide how hot, cold, wet, or windy it might be!

Date:

Astronomy

Jun. 25, 2012 Rise Set
Actual Time 5:59 AM EDT 9:14 PM EDT
Civil Twilight 5:24 AM EDT 9:49 PM EDT
Nautical Twilight 4:39 AM EDT 10:33 PM EDT
Astronomical Twilight 3:45 AM EDT 11:28 PM EDT
Moon 12:15 PM EDT (6/25) 12:05 AM EDT (6/25)
Length of Visible Light 16h 24m
Length of Day
15h 15m
Waxing Crescent, 34% of the Moon is Illuminated
Jun 25
Waxing Crescent
Jun 26
First Quarter
Jul 3
Full
Jul 10
Last Quarter
Jul 19
New

Hourly Weather History & Observations

Time (EDT) Temp. Dew Point Humidity Pressure Visibility Wind Dir Wind Speed Gust Speed Precip Events Conditions
12:53 AM 72.0 °F 59.0 °F 64% 29.92 in 10.0 mi NNE 10.4 mph - N/A   Mostly Cloudy
1:53 AM 69.1 °F 59.0 °F 70% 29.93 in 10.0 mi NNE 10.4 mph - N/A   Mostly Cloudy
2:53 AM 66.9 °F 55.9 °F 68% 29.93 in 10.0 mi NE 9.2 mph - N/A   Clear
3:53 AM 66.0 °F 55.9 °F 70% 29.94 in 10.0 mi NNE 9.2 mph - N/A   Clear
4:53 AM 64.0 °F 54.0 °F 70% 29.95 in 10.0 mi North 8.1 mph - N/A   Clear
5:53 AM 63.0 °F 53.1 °F 70% 29.97 in 10.0 mi North 9.2 mph - N/A   Clear
6:53 AM 63.0 °F 52.0 °F 67% 29.99 in 10.0 mi North 10.4 mph - N/A   Clear
7:53 AM 64.0 °F 52.0 °F 65% 30.01 in 10.0 mi North 11.5 mph - N/A   Scattered Clouds
8:03 AM 66.2 °F 53.6 °F 64% 30.03 in 10.0 mi North 11.5 mph - N/A   Mostly Cloudy
8:12 AM 66.2 °F 53.6 °F 64% 30.03 in 10.0 mi North 12.7 mph 19.6 mph N/A   Scattered Clouds
8:53 AM 68.0 °F 54.0 °F 61% 30.02 in 10.0 mi North 11.5 mph - N/A   Clear
9:53 AM 72.0 °F 53.1 °F 51% 30.02 in 10.0 mi North 12.7 mph 18.4 mph N/A   Partly Cloudy
10:53 AM 73.9 °F 48.0 °F 40% 30.03 in 10.0 mi NNE 15.0 mph - N/A   Partly Cloudy
11:53 AM 75.9 °F 44.1 °F 32% 30.02 in 10.0 mi NNE 19.6 mph 27.6 mph N/A   Partly Cloudy
12:53 PM 75.9 °F 43.0 °F 31% 30.02 in 10.0 mi North 15.0 mph 26.5 mph N/A   Clear
1:53 PM 77.0 °F 42.1 °F 29% 30.02 in 10.0 mi NE 15.0 mph 24.2 mph N/A   Clear
2:53 PM 78.1 °F 41.0 °F 27% 30.02 in 10.0 mi North 12.7 mph 23.0 mph N/A   Partly Cloudy
3:53 PM 80.1 °F 42.1 °F 26% 30.01 in 10.0 mi NNE 16.1 mph 19.6 mph N/A   Scattered Clouds
4:53 PM 77.0 °F 41.0 °F 28% 30.01 in 10.0 mi NNE 11.5 mph 24.2 mph N/A   Partly Cloudy
5:53 PM 77.0 °F 42.1 °F 29% 30.01 in 10.0 mi North 15.0 mph 21.9 mph N/A   Clear
6:53 PM 75.0 °F 42.1 °F 31% 30.01 in 10.0 mi NNE 11.5 mph 18.4 mph N/A   Clear
7:53 PM 73.0 °F 42.1 °F 33% 30.01 in 10.0 mi North 10.4 mph - N/A   Partly Cloudy
8:53 PM 70.0 °F 42.1 °F 36% 30.02 in 10.0 mi North 9.2 mph - N/A   Partly Cloudy
9:53 PM 64.0 °F 43.0 °F 46% 30.02 in 10.0 mi NE 4.6 mph - N/A   Clear
10:53 PM 62.1 °F 44.1 °F 52% 30.03 in 10.0 mi Calm Calm - N/A   Clear
11:53 PM 60.1 °F 45.0 °F 57% 30.04 in 10.0 mi Calm Calm - N/A   Clear